Home   Weather   Prievidza   Past weeks

Flag for Slovakia Past Weather in Prievidza, Slovakia — Yesterday and Last 2 Weeks

Now
63 °F

Mild.


Feels Like: 63 °F
Forecast: 62 / 87 °F
Wind: No wind

Location: Prievidza

Current Time: Aug 17, 2017 at 4:00:41 am

Latest Report: Aug 17, 2017 at 3:00 am


Visibility: 17 mi

Pressure: 30.10 "Hg

Humidity: 85%

Dew Point: 58 °F

Location of PrievidzaLocation

Past Weather in Prievidza — Graph

°F

Prievidza Temperature Yesterday

Maximum temperature yesterday: 88 °F (at 5:00 pm)
Minimum temperature yesterday: 55 °F (at 6:00 am)
Average temperature yesterday: 73 °F

High & Low Weather Summary for the Past Weeks

 TemperatureHumidityPressure
High96 °F (Aug 3, 3:00 pm)93% (Aug 12, 6:00 am)30.20 "Hg (Aug 12, 6:00 am)
Low52 °F (Aug 14, 4:00 am)3% (Aug 10, 1:00 pm)29.76 "Hg (Aug 11, 6:00 pm)
Average74 °F60%30.02 "Hg
* Reported Aug 2 2:00 am — Aug 17 2:00 am, Prievidza. Weather by CustomWeather, © 2017

Note: Actual official high and low records may vary slightly from our data, if they occured in-between our weather recording intervals... More about our weather records

Advertising

Prievidza Weather History for the Previous 24 Hours

Scroll right to see more
 ConditionsComfort  
Time TempWeatherWind HumidityBarometerVisibility
2:00 am
Thu, Aug 17
63 °FMild.No wind82%30.10 "Hg18 mi
1:00 am65 °FMild.No wind77%30.10 "Hg19 mi
12:00 am67 °FMild.No wind72%30.11 "Hg22 mi
11:00 pm
Wed, Aug 16
69 °FMild.N/A69%30.11 "Hg25 mi
10:00 pm70 °FPassing clouds.No wind64%30.10 "Hg25 mi
9:00 pm72 °FPassing clouds.N/A59%30.09 "Hg28 mi
8:00 pm78 °FWarm.3 mph50%30.06 "HgN/A
7:00 pm82 °FWarm.1 mph50%30.04 "HgN/A
6:00 pm87 °FWarm.N/A50%30.03 "HgN/A
5:00 pm88 °FHot.2 mph50%30.03 "HgN/A
4:00 pm88 °FScattered clouds.3 mph32%30.03 "Hg25 mi
3:00 pm88 °FScattered clouds.2 mph31%30.05 "Hg25 mi
2:00 pm88 °FScattered clouds.N/A32%30.06 "Hg25 mi
1:00 pm86 °FWarm.N/A49%30.08 "HgN/A
12:00 pm85 °FWarm.N/A50%30.09 "HgN/A
11:00 am83 °FWarm.N/A50%30.10 "HgN/A
10:00 am78 °FPassing clouds.N/A49%30.11 "Hg22 mi
9:00 am73 °FMild.3 mph54%30.11 "HgN/A
8:00 am66 °FScattered clouds.No wind70%30.13 "Hg19 mi
7:00 am59 °FCool.No wind88%30.14 "Hg17 mi
6:00 am55 °FCool.No wind88%30.15 "Hg16 mi
5:00 am56 °FCool.No wind86%30.14 "Hg25 mi
4:00 am57 °FCool.No wind84%30.14 "Hg25 mi
Weather by CustomWeather, © 2017

See weather overviewHow to use our weather pages